TimeEST,TemperatureF,Dew PointF,Humidity,Sea Level PressureIn,VisibilityMPH,Wind Direction,Wind SpeedMPH,Gust SpeedMPH,PrecipitationIn,Events,Conditions,WindDirDegrees,DateUTC
12:13 AM,24.8,15.8,69,29.75,10.0,WSW,20.7,32.2,N/A,,Overcast,240,2013-02-20 05:13:00
12:53 AM,23.0,14.0,68,29.81,10.0,WSW,20.7,35.7,N/A,,Overcast,250,2013-02-20 05:53:00
1:53 AM,21.9,15.1,75,29.83,8.0,WSW,16.1,25.3,0.00,Snow,Light Snow,250,2013-02-20 06:53:00
2:10 AM,21.2,14.0,74,29.78,9.0,West,20.7,27.6,0.00,,Overcast,260,2013-02-20 07:10:00
2:28 AM,21.2,12.2,68,29.79,10.0,West,21.9,32.2,0.00,,Overcast,260,2013-02-20 07:28:00
2:53 AM,21.0,12.9,71,29.84,10.0,WSW,18.4,26.5,0.00,,Overcast,250,2013-02-20 07:53:00
3:53 AM,21.0,14.0,74,29.85,3.0,West,20.7,27.6,0.00,Snow,Light Snow,270,2013-02-20 08:53:00
4:01 AM,19.4,14.0,80,29.80,2.5,West,19.6,-,0.00,Snow,Light Snow,260,2013-02-20 09:01:00
4:20 AM,19.4,14.0,80,29.81,3.0,West,17.3,28.8,0.00,Snow,Light Snow,260,2013-02-20 09:20:00
4:53 AM,19.9,12.9,74,29.87,4.0,West,19.6,26.5,0.00,Snow,Light Snow,260,2013-02-20 09:53:00
5:13 AM,19.4,14.0,80,29.82,3.0,West,18.4,27.6,0.00,Snow,Light Snow,260,2013-02-20 10:13:00
5:21 AM,19.4,12.2,74,29.82,2.5,West,17.3,26.5,0.00,Snow,Light Snow,260,2013-02-20 10:21:00
5:28 AM,19.4,14.0,80,29.82,1.2,West,12.7,23.0,0.00,Snow,Light Snow,260,2013-02-20 10:28:00
5:38 AM,19.4,15.8,86,29.82,1.0,West,11.5,-,0.00,Snow,Light Snow,260,2013-02-20 10:38:00
5:53 AM,19.0,15.1,85,29.88,1.0,WSW,12.7,-,0.00,Snow,Light Snow,250,2013-02-20 10:53:00
6:09 AM,19.4,15.8,86,29.83,1.5,West,12.7,21.9,0.00,Snow,Light Snow,260,2013-02-20 11:09:00
6:21 AM,19.4,14.0,80,29.83,2.5,West,19.6,24.2,0.00,Snow,Light Snow,260,2013-02-20 11:21:00
6:29 AM,19.4,14.0,80,29.84,3.0,West,21.9,28.8,0.00,Snow,Light Snow,260,2013-02-20 11:29:00
6:53 AM,19.0,12.0,74,29.90,2.0,West,17.3,29.9,0.00,Snow,Light Snow,270,2013-02-20 11:53:00
7:00 AM,19.4,12.2,74,29.84,6.0,WSW,19.6,29.9,0.00,Snow,Light Snow,250,2013-02-20 12:00:00
7:30 AM,19.4,10.4,68,29.85,7.0,West,19.6,25.3,0.00,Snow,Light Snow,270,2013-02-20 12:30:00
7:53 AM,19.0,10.0,68,29.92,7.0,West,21.9,34.5,0.00,Snow,Light Snow,270,2013-02-20 12:53:00
8:40 AM,19.4,10.4,68,29.88,2.5,West,19.6,28.8,0.00,Snow,Light Snow,270,2013-02-20 13:40:00
8:46 AM,19.4,10.4,68,29.88,3.0,West,25.3,29.9,0.00,Snow,Light Snow,260,2013-02-20 13:46:00
8:53 AM,19.0,10.0,68,29.94,5.0,West,24.2,29.9,0.00,Snow,Light Snow,260,2013-02-20 13:53:00
9:53 AM,19.9,10.0,65,29.94,7.0,West,25.3,32.2,0.00,Snow,Light Snow,260,2013-02-20 14:53:00
10:21 AM,19.4,10.4,68,29.89,7.0,West,24.2,32.2,0.00,,Mostly Cloudy,270,2013-02-20 15:21:00
10:53 AM,21.0,10.0,63,29.96,10.0,West,20.7,33.4,0.00,,Mostly Cloudy,260,2013-02-20 15:53:00
11:48 AM,21.2,10.4,63,29.91,7.0,West,23.0,36.8,0.00,Snow,Light Snow,260,2013-02-20 16:48:00
11:53 AM,21.2,10.4,63,29.91,4.0,West,21.9,34.5,N/A,Snow,Light Snow,270,2013-02-20 16:53:00
12:01 PM,21.2,10.4,63,29.92,2.0,West,26.5,33.4,N/A,Snow,Light Snow,260,2013-02-20 17:01:00
12:15 PM,21.2,10.4,63,29.92,2.5,West,24.2,32.2,0.00,Snow,Light Snow,270,2013-02-20 17:15:00
12:26 PM,21.2,10.4,63,29.92,6.0,West,23.0,34.5,0.00,Snow,Light Snow,270,2013-02-20 17:26:00
12:53 PM,21.0,10.0,63,29.99,7.0,West,26.5,-,0.00,Snow,Light Snow,270,2013-02-20 17:53:00
1:13 PM,21.2,10.4,63,29.93,7.0,West,24.2,34.5,0.00,Snow,Light Snow,260,2013-02-20 18:13:00
1:53 PM,21.0,10.0,63,30.00,7.0,West,25.3,33.4,0.00,Snow,Light Snow,260,2013-02-20 18:53:00
2:53 PM,21.9,12.0,66,30.02,7.0,West,27.6,34.5,0.00,Snow,Light Snow,270,2013-02-20 19:53:00
3:07 PM,21.2,12.2,68,29.97,7.0,West,18.4,28.8,0.00,Snow,Light Snow,260,2013-02-20 20:07:00
3:15 PM,21.2,12.2,68,29.97,7.0,West,18.4,-,0.00,Snow,Light Snow,270,2013-02-20 20:15:00
3:35 PM,21.2,12.2,68,29.98,3.0,West,23.0,32.2,0.00,Snow,Light Snow,260,2013-02-20 20:35:00
3:53 PM,21.0,12.9,71,30.04,3.0,West,23.0,33.4,0.00,Snow,Light Snow,260,2013-02-20 20:53:00
4:06 PM,21.2,14.0,74,29.99,2.5,West,20.7,29.9,0.00,Snow,Light Snow,270,2013-02-20 21:06:00
4:32 PM,21.2,12.2,68,30.00,5.0,West,18.4,29.9,0.00,Snow,Light Snow,260,2013-02-20 21:32:00
4:53 PM,21.0,12.0,68,30.07,5.0,West,17.3,29.9,0.00,Snow,Light Snow,270,2013-02-20 21:53:00
5:53 PM,19.9,10.9,68,30.10,10.0,West,21.9,-,0.00,Snow,Light Snow,270,2013-02-20 22:53:00
6:53 PM,19.0,10.9,71,30.13,6.0,West,23.0,32.2,0.00,Snow,Light Snow,270,2013-02-20 23:53:00
7:09 PM,19.4,10.4,68,30.06,6.0,West,19.6,28.8,0.00,Snow,Light Snow,260,2013-02-21 00:09:00
7:53 PM,19.0,10.0,68,30.14,10.0,West,26.5,34.5,0.00,Snow,Light Snow,260,2013-02-21 00:53:00
8:53 PM,19.0,10.0,68,30.15,10.0,West,20.7,31.1,0.00,Snow,Light Snow,270,2013-02-21 01:53:00
9:53 PM,19.9,9.0,62,30.15,10.0,WNW,23.0,28.8,0.00,Snow,Light Snow,290,2013-02-21 02:53:00
10:53 PM,19.9,10.0,65,30.14,10.0,West,12.7,-,0.00,Snow,Light Snow,270,2013-02-21 03:53:00
11:53 PM,19.0,10.9,71,30.12,10.0,West,17.3,24.2,N/A,,Overcast,260,2013-02-21 04:53:00